Location: Marcé
(47.5801°N, 0.3280°W)
Time: 15:37:04
(UTC+01:00)

Vanguard 1 - Pass Details

Date: 09 December 2021
Orbit: 652 x 3830 km, 34.2° (Epoch: 19 January)

Event Time Altitude Azimuth Distance (km) Brightness Sun altitude
Rises 03:11:10 0° 266° (W) 7,606 - -53.1°
Reaches altitude 10° 03:16:14 10° 263° (W) 6,778 - -52.3°
Maximum altitude 03:38:14 52° 196° (SSW) 4,191 - -49.0°
Exits shadow 03:41:39 49° 173° (S) 4,153 12.9 -48.4°
Drops below altitude 10° 03:55:49 10° 127° (SE) 5,545 14.1 -46.2°
Sets 03:59:29 0° 122° (ESE) 6,205 14.6 -45.6°
